Regional Weather Roundup
Issued by NWS

Home | Current Version | Previous Version | Graphics & Text | Print | Product List | Glossary On
Versions: 1 2 3 4 5 6 7 8 9 10 11 12 13 14 15 16 17 18 19 20 21 22 23 24 25 26 27 28 29 30 31 32 33 34 35 36 37 38 39 40 41 42 43 44 45 46 47 48 49 50
000
ASUS43 KDTX 131901
RWRMI
MICHIGAN HOURLY REGIONAL WEATHER ROUNDUP
NATIONAL WEATHER SERVICE DETROIT/PONTIAC MI
200 PM EST SAT FEB 13 2016

NOTE: "FAIR" INDICATES FEW OR NO CLOUDS BELOW 12,000 FEET WITH NO
SIGNIFICANT WEATHER AND/OR OBSTRUCTION TO VISIBILITY.

MIZ047>049-052>055-059>063-066>070-074>076-081>083-132000-
SOUTHEAST LOWER MICHIGAN

CITY           SKY/WX    TMP DP  RH WIND       PRES   REMARKS
ADRIAN         CLOUDY    14   2  58 NW10      30.44F WCI   1
ALMA           CLOUDY    15   4  61 W13       30.43S WCI   1
ANN ARBOR      CLOUDY    13  -2  51 NW12G25   30.42S WCI  -1
BAD AXE        SUNNY      5  -6  59 W12       30.42S WCI -10
DETROIT CITY   CLOUDY    14  -6  40 NW14G23   30.43S WCI  -1
DETROIT        FLURRIES  13   3  64 NW16      30.44F WCI  -3
FLINT          MOSUNNY   14  -2  49 NW14G22   30.43S WCI  -1
GROSSE ILE     CLOUDY    16   1  53 W9G16     30.43S WCI   4
HILLSDALE      CLOUDY    13   2  63 NW12      30.40F WCI  -1
HOWELL         CLOUDY    15   0  52 NW8G21    30.40S WCI   4

CITY           SKY/WX    TMP DP  RH WIND       PRES   REMARKS
JACKSON        CLOUDY    15   1  53 W17       30.41F WCI  -1
LAMBERTVILLE   CLOUDY    16   2  54 W9        30.45F WCI   4
LANSING        CLOUDY    13   0  56 NW9       30.43F WCI   1
LAPEER         CLOUDY     8  -3  61 W6        30.42S WCI  -2
MASON          CLOUDY    13   1  58 W13       30.42S WCI  -1
MONROE         CLOUDY    17  -2  44 NW15G22   30.43F WCI   2
MT. CLEMENS    MOSUNNY   10  -2  59 N10       30.42S WCI  -4
PONTIAC        PTSUNNY   11  -3  53 NW20      30.38F WCI  -7
PORT HOPE        N/A      6  -5  60 NW21G33   30.40F WCI -14
PORT HURON     MOSUNNY    9  -6  52 NW14G20   30.44R WCI  -8
TRI CITIES     SUNNY      7  -5  57 SE5       30.45F WCI  -2
MIDLAND        PTSUNNY   12  -3  50 NW5       30.43F WCI   4
TROY           PTSUNNY   15  -4  42 NW18      30.44S WCI  -2
SAGINAW HB     MOSUNNY    9   0  66 CALM      30.45F
$$
MIZ043>046-050>051-056>058-064>065-071>073-077>080-132000-
SOUTHWEST LOWER MICHIGAN

CITY           SKY/WX    TMP DP  RH WIND       PRES   REMARKS
BATTLE CREEK   PTSUNNY   14   2  58 NW12      30.44S WCI   0
BENTON HARBOR  LGT SNOW  15   4  61 NW13G20   30.52S WCI   1
BIG RAPIDS     LGT SNOW  13   4  66 W9G16     30.40S WCI   1
COLDWATER      CLOUDY    15   6  68 W12       30.44S WCI   2
FREMONT        CLOUDY    13   3  63 NW10      30.45S WCI   0
HOLLAND        CLOUDY    17   4  56 W14G25    30.48F WCI   3
GRAND RAPIDS   PTSUNNY   15   0  51 NW13G22   30.45S WCI   1
IONIA          CLOUDY    14  -2  48 W12       30.42F WCI   1
KALAMAZOO      LGT SNOW  15   4  61 NW14G23   30.45F WCI   0
LUDINGTON      CLOUDY    12   3  66 NW9G16    30.48S WCI   0
MARSHALL       CLOUDY    15   2  57 NW7       30.42F WCI   5
MOUNT PLEASANT LGT SNOW  10   2  70 N7        30.42S WCI  -1
MUSKEGON       LGT SNOW  13   6  74 N12       30.49S VSB 3/4 WCI  -1
SOUTH HAVEN    CLOUDY    15   2  56 NW13G20   30.50S WCI   1
$$
MIZ016>042-132000-
NORTHERN LOWER MICHIGAN

CITY           SKY/WX    TMP DP  RH WIND       PRES   REMARKS
ALPENA         MOSUNNY    3 -11  52 NW13      30.41F WCI -14
BEAVER ISLAND  CLOUDY     8   1  73 CALM      30.41F HAZE
BELLAIRE       CLOUDY     9  -5  53 CALM      30.44S
CADILLAC       LGT SNOW  11   2  68 NW7       30.34S WCI   0
CHARLEVOIX     CLOUDY     6  -3  66 CALM      30.45S HAZE
FRANKFORT      LGT SNOW  12   4  70 NW12G17   30.45S WCI  -2
GAYLORD        CLOUDY     6  -8  52 W8        30.34S WCI  -7
GRAYLING       MOSUNNY    8  -8  48 W9        30.37F WCI  -6
HARBOR SPRINGS CLOUDY     6  -4  62 SW7       30.41F WCI  -6
HOUGHTON LAKE  PTSUNNY    5  -5  63 VRB6      30.38F WCI  -6
MANISTEE       CLOUDY    12   3  67 NW10      30.46S WCI  -1
OSCODA         SUNNY      6 -11  45 N10G20    30.41F WCI  -8
PELLSTON       MOSUNNY    5  -8  55 NW8       30.42F WCI  -8
ROGERS CITY    PTSUNNY    4  -9  56 NW8       30.43S WCI  -9
TRAVERSE CITY  CLOUDY    11   0  61 VRB3      30.42F
$$
MIZ007>008-015-132000-
EASTERN UPPER MICHIGAN

CITY           SKY/WX    TMP DP  RH WIND       PRES   REMARKS
KINROSS        MOSUNNY    5  -8  56 W7        30.40S WCI  -7
MACKINAC ISLAN CLOUDY     2  -8  62 W6        30.40F HAZE    WCI  -9
NEWBERRY       CLOUDY     6  -2  68 W3        30.38S HAZE
S. S. MARIE    CLOUDY     0 -12  57 W5        30.39F WCI -10
$$
MIZ004>006-011>014-085-132000-
CENTRAL UPPER MICHIGAN

CITY           SKY/WX    TMP DP  RH WIND       PRES   REMARKS
MANISTIQUE     LGT SNOW  11   5  78 NW15      30.40S VSB 1   WCI  -6
ESCANABA       SUNNY     10  -8  44 NW7G22    30.46S WCI   0
MENOMINEE      SUNNY     10  -6  48 N10       30.47F WCI  -3
SAWYER-GWINN   MOSUNNY    5  -2  72 W12G22    30.40  WCI -11
$$
MIZ001>003-009>011-084-132000-
WESTERN UPPER MICHIGAN

CITY           SKY/WX    TMP DP  RH WIND       PRES   REMARKS
IRON MOUNTAIN  MIX PCPN  10  -6  48 NW14G24   30.41F WCI  -6
HOUGHTON       LGT SNOW   4  -3  73 NW15      30.43F WCI -14
COPPER HARBOR    N/A      8   0  69 N15G24    30.46F WCI  -9
IRONWOOD       MOSUNNY    1  -6  71 W6        30.45S WCI -10
$$

ABBREVIATIONS USED IN REMARKS
   TC - TEMPERATURE IN CELSIUS
  WCI - WIND CHILL INDEX
   HX - HEAT INDEX
  VSB - VISIBILITY




USA.gov is the U.S. government's official web portal to all federal, state and local government web resources and services.